EN

Hourly Weather 2-e Itkulovo

Today, 14 June, Monday

Time Temperature Precipitation Wind Pressure Humidity
00:00 +17°C° 0 mm 2 mps 717 mmHg 45%
01:00 +16°C° 0 mm 2 mps 717 mmHg 46%
02:00 +16°C° 0 mm 2 mps 717 mmHg 47%
03:00 +16°C° 0 mm 2 mps 717 mmHg 47%
04:00 +16°C° 0 mm 2 mps 718 mmHg 48%
05:00 +17°C° 0 mm 2 mps 718 mmHg 49%
06:00 +18°C° 0 mm 3 mps 718 mmHg 49%
07:00 +18°C° 0 mm 3 mps 719 mmHg 50%
08:00 +20°C° 0 mm 3 mps 719 mmHg 46%
09:00 +22°C° 0 mm 4 mps 719 mmHg 43%
10:00 +23°C° 0 mm 4 mps 719 mmHg 39%
11:00 +25°C° 0 mm 5 mps 719 mmHg 36%
12:00 +26°C° 0 mm 5 mps 719 mmHg 33%
13:00 +27°C° 0 mm 5 mps 719 mmHg 30%
14:00 +27°C° 0 mm 5 mps 719 mmHg 34%
15:00 +26°C° 0 mm 4 mps 719 mmHg 37%
16:00 +26°C° 0 mm 3 mps 718 mmHg 41%
17:00 +25°C° 0 mm 3 mps 718 mmHg 46%
18:00 +24°C° 0 mm 2 mps 718 mmHg 51%
19:00 +23°C° 0 mm 2 mps 718 mmHg 57%
20:00 +20°C° 0 mm 2 mps 718 mmHg 54%
21:00 +19°C° 0 mm 2 mps 717 mmHg 52%
22:00 +17°C° 0 mm 2 mps 717 mmHg 50%
23:00 +17°C° 0 mm 2 mps 717 mmHg 50%

Tomorrow, 15 June, Tuesday

Time Temperature Precipitation Wind Pressure Humidity
00:00 +16°C° 0 mm 2 mps 717 mmHg 50%
01:00 +16°C° 0 mm 2 mps 717 mmHg 50%
02:00 +16°C° 0 mm 2 mps 717 mmHg 52%
03:00 +15°C° 0 mm 2 mps 717 mmHg 55%
04:00 +15°C° 0 mm 1 mps 717 mmHg 57%
05:00 +18°C° 0 mm 1 mps 717 mmHg 56%
06:00 +19°C° 0 mm 2 mps 717 mmHg 55%
07:00 +21°C° 0 mm 2 mps 718 mmHg 54%
08:00 +24°C° 0 mm 2 mps 718 mmHg 50%
09:00 +25°C° 0 mm 3 mps 718 mmHg 45%
10:00 +27°C° 0 mm 4 mps 718 mmHg 41%
11:00 +28°C° 0 mm 4 mps 717 mmHg 39%
12:00 +28°C° 0 mm 4 mps 717 mmHg 37%
13:00 +29°C° 0 mm 4 mps 717 mmHg 35%
14:00 +29°C° 0 mm 4 mps 717 mmHg 37%
15:00 +28°C° 0 mm 4 mps 716 mmHg 40%
16:00 +28°C° 0 mm 3 mps 716 mmHg 43%
17:00 +27°C° 0 mm 2 mps 716 mmHg 47%
18:00 +26°C° 0 mm 2 mps 716 mmHg 52%
19:00 +24°C° 0 mm 1 mps 715 mmHg 57%
20:00 +23°C° 0 mm 1 mps 715 mmHg 57%
21:00 +22°C° 0 mm 1 mps 715 mmHg 56%
22:00 +20°C° 0 mm 1 mps 715 mmHg 56%
23:00 +20°C° 0 mm 1 mps 715 mmHg 56%

Day after tomorrow, 16 June, Wednesday

Time Temperature Precipitation Wind Pressure Humidity
00:00 +19°C° 0 mm 1 mps 714 mmHg 56%
01:00 +19°C° 0 mm 1 mps 714 mmHg 55%
02:00 +19°C° 0 mm 1 mps 714 mmHg 57%
03:00 +18°C° 0 mm 1 mps 714 mmHg 59%
04:00 +18°C° 0 mm 1 mps 714 mmHg 60%
05:00 +20°C° 0 mm 1 mps 715 mmHg 58%
06:00 +22°C° 0 mm 1 mps 715 mmHg 56%
07:00 +24°C° 0 mm 1 mps 715 mmHg 54%
08:00 +25°C° 0 mm 2 mps 715 mmHg 49%
09:00 +27°C° 0 mm 3 mps 715 mmHg 44%
10:00 +29°C° 0 mm 4 mps 715 mmHg 39%
11:00 +29°C° 0 mm 4 mps 715 mmHg 37%
12:00 +29°C° 0 mm 5 mps 715 mmHg 36%
13:00 +29°C° 0 mm 5 mps 715 mmHg 34%
14:00 +29°C° 0 mm 5 mps 714 mmHg 39%
15:00 +28°C° 0 mm 4 mps 714 mmHg 44%
16:00 +27°C° 0 mm 3 mps 714 mmHg 48%
17:00 +26°C° 0 mm 3 mps 713 mmHg 53%
18:00 +25°C° 0 mm 2 mps 713 mmHg 58%
19:00 +24°C° 0 mm 2 mps 713 mmHg 63%
20:00 +23°C° 0 mm 2 mps 713 mmHg 61%
21:00 +21°C° 0 mm 2 mps 712 mmHg 59%
22:00 +20°C° 0 mm 2 mps 712 mmHg 56%
23:00 +19°C° 0.1 mm 2 mps 712 mmHg 59%

17 June, Thursday

Time Temperature Precipitation Wind Pressure Humidity
00:00 +19°C° 0.1 mm 2 mps 711 mmHg 61%
01:00 +18°C° 0.1 mm 2 mps 710 mmHg 63%
02:00 +18°C° 0 mm 2 mps 710 mmHg 63%
03:00 +18°C° 0 mm 3 mps 710 mmHg 62%
04:00 +18°C° 0 mm 3 mps 710 mmHg 61%
05:00 +19°C° 0.1 mm 3 mps 710 mmHg 63%
06:00 +20°C° 0.1 mm 3 mps 709 mmHg 66%
07:00 +21°C° 0.1 mm 3 mps 709 mmHg 68%
08:00 +22°C° 0 mm 4 mps 709 mmHg 63%
09:00 +25°C° 0 mm 5 mps 709 mmHg 59%
10:00 +26°C° 0 mm 5 mps 709 mmHg 54%
11:00 +24°C° 0.4 mm 6 mps 709 mmHg 61%
12:00 +24°C° 0.4 mm 6 mps 709 mmHg 67%
13:00 +23°C° 0.4 mm 6 mps 709 mmHg 74%
14:00 +22°C° 0.3 mm 6 mps 709 mmHg 76%
15:00 +22°C° 0.3 mm 6 mps 709 mmHg 78%
16:00 +21°C° 0.3 mm 6 mps 709 mmHg 80%
17:00 +20°C° 0 mm 6 mps 709 mmHg 83%
18:00 +17°C° 0 mm 6 mps 709 mmHg 86%
19:00 +16°C° 0 mm 6 mps 709 mmHg 89%
20:00 +15°C° 0 mm 6 mps 709 mmHg 88%
21:00 +15°C° 0 mm 5 mps 709 mmHg 86%
22:00 +14°C° 0 mm 5 mps 710 mmHg 84%
23:00 +14°C° 0 mm 5 mps 710 mmHg 84%

18 June, Friday

Time Temperature Precipitation Wind Pressure Humidity
00:00 +13°C° 0 mm 4 mps 710 mmHg 83%
01:00 +13°C° 0 mm 4 mps 710 mmHg 82%
02:00 +12°C° 0 mm 4 mps 710 mmHg 84%
03:00 +11°C° 0 mm 4 mps 710 mmHg 86%
04:00 +10°C° 0 mm 3 mps 711 mmHg 87%
05:00 +11°C° 0 mm 4 mps 711 mmHg 79%
06:00 +12°C° 0 mm 4 mps 711 mmHg 70%
07:00 +12°C° 0 mm 5 mps 712 mmHg 62%
08:00 +14°C° 0 mm 5 mps 712 mmHg 53%
09:00 +15°C° 0 mm 5 mps 713 mmHg 45%
10:00 +17°C° 0 mm 5 mps 713 mmHg 37%
11:00 +17°C° 0 mm 5 mps 713 mmHg 33%
12:00 +19°C° 0 mm 5 mps 713 mmHg 30%
13:00 +20°C° 0 mm 5 mps 714 mmHg 27%
14:00 +20°C° 0 mm 5 mps 714 mmHg 27%
15:00 +20°C° 0 mm 5 mps 714 mmHg 27%
16:00 +20°C° 0 mm 5 mps 714 mmHg 27%
17:00 +19°C° 0 mm 5 mps 715 mmHg 33%
18:00 +18°C° 0 mm 4 mps 715 mmHg 39%
19:00 +16°C° 0 mm 3 mps 715 mmHg 45%
20:00 +14°C° 0 mm 3 mps 715 mmHg 51%
21:00 +12°C° 0 mm 3 mps 716 mmHg 57%
22:00 +11°C° 0 mm 3 mps 716 mmHg 63%
23:00 +10°C° 0 mm 3 mps 716 mmHg 69%

19 June, Saturday

Time Temperature Precipitation Wind Pressure Humidity
00:00 +9°C° 0 mm 2 mps 716 mmHg 74%
01:00 +8°C° 0 mm 2 mps 716 mmHg 80%
02:00 +8°C° 0 mm 2 mps 717 mmHg 81%
03:00 +8°C° 0 mm 2 mps 717 mmHg 82%
04:00 +8°C° 0 mm 2 mps 717 mmHg 83%
05:00 +10°C° 0 mm 3 mps 717 mmHg 78%
06:00 +11°C° 0 mm 4 mps 717 mmHg 72%
07:00 +13°C° 0 mm 4 mps 717 mmHg 67%
08:00 +14°C° 0 mm 5 mps 717 mmHg 64%
09:00 +15°C° 0 mm 5 mps 717 mmHg 61%
10:00 +16°C° 0 mm 5 mps 717 mmHg 58%
11:00 +17°C° 0 mm 6 mps 717 mmHg 55%
12:00 +19°C° 0 mm 6 mps 717 mmHg 52%
13:00 +20°C° 0 mm 6 mps 716 mmHg 49%
14:00 +20°C° 0 mm 6 mps 716 mmHg 50%
15:00 +21°C° 0 mm 7 mps 716 mmHg 52%
16:00 +21°C° 0 mm 7 mps 716 mmHg 54%
17:00 +20°C° 0.1 mm 7 mps 715 mmHg 62%
18:00 +19°C° 0.1 mm 6 mps 715 mmHg 69%
19:00 +17°C° 0.1 mm 6 mps 715 mmHg 77%
20:00 +16°C° 0 mm 5 mps 714 mmHg 82%
21:00 +15°C° 0 mm 5 mps 714 mmHg 88%
22:00 +14°C° 0 mm 4 mps 714 mmHg 94%
23:00 +14°C° 0 mm 4 mps 713 mmHg 94%
Show more